CW9849 Weather Reports


Display with metric or nautical units.
time (UTC)temp
F
wind
direction
speed
MPH
gust
MPH
rain 1hr
in
rain 24hr
in
rain mn
in
humidity
%
barometer
mb
20260831144520 67 305 11.0 18.0 0.00 0.03 0.02 64 1020.9
20260831143020 66 298 11.0 18.0 0.00 0.03 0.02 62 1021.0
20260831141518 67 297 11.0 19.0 0.00 0.03 0.02 61 1021.0
20260831140019 67 293 10.0 18.0 0.00 0.03 0.02 62 1020.9
20260831134516 68 295 13.0 21.0 0.00 0.03 0.02 63 1020.8
20260831133013 68 262 12.0 19.0 0.00 0.03 0.02 59 1020.7
20260831131516 67 281 12.0 18.0 0.00 0.03 0.02 64 1020.5
20260831130011 67 293 10.0 18.0 0.00 0.03 0.02 63 1020.4
20260831124514 68 297 14.0 19.0 0.00 0.03 0.02 62 1020.3
20260831123008 68 291 13.0 20.0 0.00 0.03 0.02 61 1020.4
20260831121506 68 6 11.0 19.0 0.00 0.03 0.02 63 1020.1
20260831120006 68 283 10.0 20.0 0.00 0.03 0.02 66 1020.0
20260831114505 66 308 10.0 20.0 0.00 0.03 0.02 67 1020.0
20260831113108 67 327 11.0 18.0 0.00 0.03 0.02 68 1019.7
20260831111600 67 293 10.0 20.0 0.00 0.03 0.02 67 1019.4
20260831110055 67 309 11.0 19.0 0.00 0.03 0.02 66 1019.2
20260831104552 67 333 8.0 17.0 0.00 0.03 0.02 65 1019.1
20260831103051 67 348 9.0 16.0 0.00 0.03 0.02 68 1018.7
20260831101549 65 288 10.0 19.0 0.00 0.03 0.02 72 1018.7
20260831100111 65 330 8.0 16.0 0.00 0.03 0.02 71 1018.6
20260831094545 66 293 11.0 20.0 0.00 0.03 0.02 68 1018.3
20260831093045 67 318 11.0 22.0 0.00 0.03 0.02 67 1018.2
20260831091549 65 315 11.0 19.0 0.00 0.03 0.02 73 1018.0
20260831090038 66 300 12.0 20.0 0.00 0.03 0.02 71 1017.7
20260831084540 65 317 12.0 21.0 0.00 0.06 0.02 72 1017.5
20260831083030 65 295 14.0 26.0 0.00 0.06 0.02 72 1017.4
20260831081527 64 320 14.0 24.0 0.00 0.06 0.02 75 1017.0
20260831080027 63 288 12.0 22.0 0.00 0.06 0.02 77 1016.8
20260831074524 64 295 11.0 20.0 0.00 0.06 0.02 77 1016.7
20260831073033 63 295 14.0 20.0 0.00 0.06 0.02 79 1016.3
20260831071520 62 297 11.0 24.0 0.00 0.06 0.02 79 1016.2
20260831070017 62 295 11.0 25.0 0.00 0.06 0.02 80 1015.9
20260831064519 62 295 16.0 24.0 0.00 0.06 0.02 79 1015.7
20260831063020 62 307 13.0 21.0 0.00 0.06 0.02 80 1015.4
20260831061507 62 307 13.0 25.0 0.00 0.06 0.02 81 1015.2
20260831060005 62 284 21.0 30.0 0.00 0.06 0.02 80 1014.8
20260831054502 62 293 18.0 29.0 0.00 0.06 0.02 80 1014.5
20260831053117 62 312 19.0 29.0 0.00 0.06 0.02 82 1014.1
20260831051558 62 304 18.0 28.0 0.00 0.06 0.02 83 1014.0
20260831050110 61 288 18.0 29.0 0.00 0.06 0.02 85 1013.6
20260831044554 62 288 12.0 24.0 0.00 0.06 0.02 80 1013.4
20260831043053 62 304 12.0 20.0 0.00 0.06 0.02 79 1013.2
20260831041557 62 309 12.0 21.0 0.00 0.06 0.02 80 1013.1
20260831040048 62 304 14.0 21.0 0.00 0.06 0.02 79 1012.8
20260831034547 62 295 12.0 19.0 0.00 0.06 0.02 79 1012.7
20260831033104 62 302 13.0 19.0 0.00 0.06 0.02 79 1012.5
20260831031551 62 319 12.0 19.0 0.00 0.06 0.02 79 1012.3
20260831030041 62 346 11.0 18.0 0.00 0.06 0.02 80 1012.1
20260831024539 62 291 12.0 20.0 0.01 0.06 0.02 83 1011.9
20260831023037 62 293 11.0 20.0 0.01 0.06 0.02 85 1011.6
20260831021535 62 271 14.0 24.0 0.01 0.06 0.02 86 1011.3
20260831020034 62 293 19.0 30.0 0.01 0.06 0.02 85 1011.1
20260831014537 63 283 21.0 31.0 0.00 0.05 0.01 84 1010.7
20260831013040 63 278 20.0 29.0 0.00 0.05 0.01 83 1010.6
20260831011529 63 288 17.0 28.0 0.00 0.05 0.01 85 1010.5
20260831010028 62 283 16.0 25.0 0.00 0.05 0.01 86 1010.4
20260831004528 61 265 13.0 21.0 0.01 0.05 0.01 88 1010.4
20260831003027 61 283 14.0 31.0 0.01 0.05 0.01 84 1010.4
20260831001530 62 271 18.0 26.0 0.01 0.05 0.01 86 1010.1
20260831000022 60 281 21.0 30.0 0.00 0.04 0.00 85 1009.9
20260830234518 63 279 19.0 29.0 0.00 0.04 0.00 80 1009.7
20260830233018 63 279 17.0 27.0 0.00 0.04 0.00 81 1009.5
20260830231515 63 286 19.0 30.0 0.00 0.04 0.00 81 1009.3
20260830230012 62 269 16.0 28.0 0.00 0.04 0.00 83 1009.3
20260830224514 63 252 16.0 28.0 0.00 0.04 0.04 80 1009.0
20260830223008 63 253 15.0 26.0 0.00 0.04 0.04 78 1008.9
20260830221606 63 271 13.0 24.0 0.00 0.04 0.04 77 1008.8
20260830220006 63 264 14.0 23.0 0.00 0.04 0.04 78 1008.8
20260830214511 63 241 16.0 30.0 0.00 0.04 0.04 76 1008.7
20260830213004 63 266 20.0 32.0 0.00 0.04 0.04 77 1008.6
20260830211503 63 253 19.0 27.0 0.00 0.04 0.04 78 1008.5
20260830210004 63 240 11.0 24.0 0.00 0.04 0.04 78 1008.3
20260830204501 63 274 20.0 31.0 0.00 0.04 0.04 75 1008.1
20260830203100 63 253 21.0 28.0 0.00 0.04 0.04 74 1008.0
20260830201600 63 279 20.0 33.0 0.00 0.04 0.04 75 1007.9
20260830200112 63 248 24.0 33.0 0.00 0.04 0.04 76 1007.5
20260830194635 63 248 22.0 34.0 0.00 0.04 0.04 76 1007.2
20260830193056 62 272 16.0 26.0 0.00 0.04 0.04 83 1007.1
20260830191600 63 276 15.0 26.0 0.00 0.04 0.04 77 1006.9
20260830190056 63 285 16.0 24.0 0.00 0.04 0.04 78 1006.8
20260830184555 63 288 12.0 22.0 0.00 0.04 0.04 79 1006.5
20260830183105 64 233 16.0 27.0 0.00 0.04 0.04 77 1006.3
20260830181553 64 262 16.0 26.0 0.00 0.04 0.04 81 1006.2
20260830180053 63 252 21.0 30.0 0.00 0.04 0.04 83 1006.2
20260830174556 64 220 23.0 32.0 0.00 0.04 0.04 83 1006.2
20260830173107 64 229 24.0 33.0 0.00 0.04 0.04 79 1006.1
20260830171551 64 226 25.0 33.0 0.02 0.04 0.04 82 1005.9
20260830170055 63 238 24.0 32.0 0.02 0.04 0.04 85 1005.8
20260830164555 63 217 21.0 32.0 0.02 0.04 0.04 86 1005.9
20260830163056 64 210 17.0 28.0 0.02 0.04 0.04 87 1006.1
20260830161606 66 202 19.0 30.0 0.00 0.02 0.02 78 1006.1
20260830160044 68 196 19.0 28.0 0.00 0.02 0.02 71 1006.1
20260830154646 70 213 22.0 31.0 0.00 0.02 0.02 68 1006.3
20260830153047 72 221 20.0 26.0 0.00 0.02 0.02 67 1006.4
20260830151542 69 222 19.0 27.0 0.00 0.02 0.02 71 1006.6
20260830150056 71 227 18.0 26.0 0.00 0.02 0.02 67 1006.8